Current weather by "City, St" or "zip code"  
 

Current Conditions: Kokomo, Kokomo Municipal Airport, IN

Fair


59.0 F

Last Updated on Sep 18 2020, 11:56 am EDT
Humidity: 49%
Wind Speed: NE 15.0 G 21.9 mph
Barometer 30.33 in
Dewpoint: 39.9 F
Visibility: 10.00 mi
Precip: --
Heat Index: NA
Wind Chill: 56 F
Current conditions at:

Kokomo, Kokomo Municipal Airport, IN (KOKK)

Lat: 40.53333 Lon: 86.06667

Local Radar Image active severe weather and emergency alerts image image weather storm and storm spotter reports image weather observation monitoring service image
Local
Radar
Active
Alerts
Storm Reports Obs
Monitoring

Sign-up For Email & Text Message Weather Alert Notification Services



Advertise Here

Observation History for Kokomo, Kokomo Municipal Airport, IN


Time Wind
(mph)
Vis
(mi)
Weather Precip (in) Temperature (F) Relative
Humidity
Wind
Chill
(F)
Heat
Index
(F)
Pressure
Air Dwpt altimeter
(in)
sea level
(mb)
Rmks
11:56 am EDT NE 15.0 G 21.9 10.00 Fair -- 59.0 39.9 49% 56 NA 30.33 1027.0
10:56 am EDT NE 15.0 G 19.6 10.00 Fair -- 58.0 42.1 56% 55 NA 30.32 1026.8
9:56 am EDT NE 13.8 10.00 A Few Clouds -- 53.0 43.0 69% 49 NA 30.30 1026.3
8:56 am EDT NE 9.2 10.00 Fair -- 50.0 44.1 80% 46 NA 30.27 1025.4
7:56 am EDT N 9.2 10.00 Fair -- 47.0 45.0 93% 43 NA 30.25 1024.6
6:56 am EDT NE 6.9 10.00 Fair -- 47.0 45.0 93% 44 NA 30.23 1023.5
5:56 am EDT N 8.1 10.00 Fair -- 48.0 45.0 89% 44 NA 30.20 1022.6
4:56 am EDT N 8.1 10.00 Fair -- 49.0 46.0 90% 46 NA 30.18 1022.0
3:56 am EDT N 8.1 10.00 A Few Clouds -- 50.0 46.9 89% 47 NA 30.18 1021.9
2:56 am EDT N 9.2 10.00 Mostly Cloudy -- 52.0 48.9 89% 49 NA 30.17 1021.7
1:56 am EDT N 8.1 10.00 A Few Clouds -- 53.0 48.9 86% 50 NA 30.16 1021.4
12:56 am EDT N 8.1 10.00 Fair -- 54.0 50.0 87% 52 NA 30.15 1021.0
11:56 pm EDT N 6.9 10.00 Fair -- 55.0 51.1 87% 53 NA 30.14 1020.6
10:56 pm EDT N 8.1 10.00 Partly Cloudy -- 57.0 51.1 81% 55 NA 30.13 1020.2
9:56 pm EDT N 6.9 10.00 Fair -- 57.0 52.0 83% 56 NA 30.12 1019.9
8:56 pm EDT N 3.5 10.00 Fair -- 59.0 54.0 83% NA NA 30.10 1019.3
7:56 pm EDT NE 3.5 10.00 A Few Clouds -- 62.0 55.0 78% NA NA 30.08 1018.6
6:56 pm EDT NE 6.9 10.00 Overcast -- 67.0 54.0 63% NA NA 30.08 1018.4
5:56 pm EDT E 11.5 10.00 Overcast -- 68.0 54.0 61% NA NA 30.07 1018.1
4:56 pm EDT NE 11.5 10.00 Overcast -- 68.0 55.9 65% NA NA 30.07 1018.2
3:56 pm EDT NE 10.4 10.00 Overcast -- 69.0 57.9 68% NA NA 30.08 1018.4
2:56 pm EDT N 15.0 10.00 Overcast -- 69.0 59.0 70% NA NA 30.08 1018.5
1:56 pm EDT NE 13.8 G 20.7 10.00 Overcast -- 70.0 60.1 71% NA NA 30.09 1018.7
12:56 pm EDT E 15.0 10.00 Overcast -- 69.0 59.0 70% NA NA 30.09 1018.9

Regional Weather Observation


Logansport/Cass County Airport, IN (KGGP)

Fair
59.0 F

Kokomo, Kokomo Municipal Airport, IN (KOKK)

Fair
59.0 F

Lafayette, Purdue University Airport, IN (KLAF)

Fair
63.0 F

Rochester Fulton County Airport, IN (KRCR)

Fair
59.0 F

INDIANAPOLIS, IN (KTYQ)

Partly Cloudy
59.0 F

Marion Municipal Airport, IN (KMZZ)

Fair
59.0 F